Location: Dumpton Point
(51.3500°N, 1.4433°E)
Time: 07:32:49
(UTC+00:00)

Envisat - Pass Details

Date: 11 December 2021
Orbit: 764 x 766 km, 98.2° (Epoch: 17 January)

Event Time Altitude Azimuth Distance (km) Brightness Sun altitude
Rises 17:30:20 0° 218° (SW) 3,224 7.2 -15.2°
Reaches altitude 10° 17:33:46 10° 242° (WSW) 2,304 6.8 -15.7°
Maximum altitude 17:36:27 14° 275° (W) 2,027 6.2 -16.1°
Drops below altitude 10° 17:39:08 10° 307° (NW) 2,314 6.0 -16.5°
Sets 17:42:37 0° 332° (NNW) 3,246 6.4 -17.0°
